QPF
0.01 0.01 0.02 0.01 0.00 0.00 0.01 0.02 0.03 0.04 0.09 0.10 0.08 0.05 0.04 0.03 0.04 0.04 0.03 0.03 0.03 0.03 0.04 0.04 0.07 0.08 0.05 0.04 0.04 0.04 0.04 0.04 0.04 0.05 0.05 0.05 0.06 0.06 0.07 0.07 0.05 0.05 0.05 0.05
0.01 0.01 0.01 0.01 0.01 0.00 0.00 0.00 0.01 0.04 0.06 0.04 0.04 0.05 0.05 0.05 0.06 0.06 0.03 0.02 0.02 0.03 0.04 0.06 0.06 0.06 0.04 0.04 0.04 0.03 0.04 0.02 0.02 0.02 0.03 0.03 0.03 0.04 0.06 0.08 0.08 0.07 0.07 0.07
0.03 0.02 0.02 0.04 0.03 0.01 0.01 0.00 0.01 0.03 0.04 0.04 0.03 0.04 0.04 0.06 0.08 0.08 0.05 0.03 0.03 0.03 0.03 0.04 0.05 0.05 0.06 0.04 0.02 0.01 0.01 0.01 0.01 0.01 0.02 0.03 0.04 0.07 0.11 0.13 0.12 0.11 0.10 0.09
0.04 0.05 0.07 0.05 0.03 0.02 0.01 0.01 0.01 0.01 0.02 0.03 0.03 0.03 0.04 0.07 0.13 0.19 0.12 0.06 0.03 0.01 0.02 0.03 0.04 0.04 0.04 0.03 0.02 0.02 0.01 0.01 0.01 0.01 0.02 0.02 0.03 0.04 0.09 0.10 0.11 0.14 0.14 0.14
0.05 0.08 0.07 0.06 0.04 0.03 0.03 0.04 0.02 0.02 0.02 0.03 0.02 0.04 0.05 0.05 0.07 0.14 0.15 0.09 0.04 0.01 0.02 0.03 0.03 0.04 0.03 0.02 0.01 0.01 0.02 0.03 0.01 0.01 0.02 0.03 0.04 0.04 0.06 0.07 0.07 0.09 0.10 0.10
0.04 0.08 0.09 0.06 0.03 0.02 0.03 0.05 0.03 0.02 0.02 0.02 0.04 0.08 0.08 0.05 0.05 0.05 0.08 0.06 0.04 0.02 0.02 0.03 0.03 0.03 0.03 0.03 0.03 0.03 0.02 0.01 0.01 0.02 0.03 0.04 0.05 0.05 0.06 0.06 0.05 0.07 0.07 0.07
0.04 0.06 0.08 0.03 0.01 0.01 0.04 0.06 0.03 0.01 0.01 0.02 0.04 0.07 0.06 0.05 0.04 0.04 0.03 0.03 0.03 0.03 0.04 0.04 0.06 0.06 0.05 0.04 0.04 0.03 0.02 0.02 0.02 0.03 0.03 0.04 0.05 0.05 0.05 0.05 0.05 0.07 0.05 0.05
0.04 0.06 0.07 0.03 0.02 0.03 0.04 0.03 0.02 0.02 0.01 0.01 0.02 0.03 0.03 0.04 0.05 0.05 0.04 0.03 0.04 0.05 0.07 0.10 0.09 0.07 0.06 0.05 0.03 0.03 0.03 0.03 0.03 0.04 0.04 0.05 0.06 0.06 0.06 0.08 0.08 0.09 0.06 0.04
0.05 0.07 0.06 0.05 0.03 0.03 0.02 0.02 0.02 0.02 0.02 0.01 0.01 0.02 0.02 0.03 0.04 0.04 0.04 0.04 0.04 0.05 0.07 0.11 0.10 0.09 0.09 0.11 0.08 0.05 0.05 0.05 0.05 0.05 0.05 0.05 0.07 0.09 0.07 0.08 0.09 0.07 0.04 0.03
0.05 0.06 0.05 0.05 0.02 0.01 0.01 0.02 0.01 0.02 0.03 0.01 0.01 0.01 0.01 0.01 0.02 0.03 0.04 0.04 0.04 0.05 0.07 0.09 0.08 0.06 0.06 0.07 0.06 0.06 0.07 0.08 0.08 0.08 0.06 0.06 0.07 0.09 0.07 0.06 0.07 0.06 0.04 0.02
0.04 0.04 0.04 0.05 0.04 0.02 0.02 0.02 0.01 0.02 0.03 0.01 0.01 0.01 0.01 0.01 0.01 0.02 0.03 0.04 0.05 0.07 0.10 0.10 0.07 0.05 0.04 0.04 0.05 0.07 0.06 0.06 0.07 0.06 0.05 0.05 0.05 0.05 0.06 0.04 0.03 0.05 0.04 0.03
0.04 0.04 0.04 0.06 0.06 0.05 0.04 0.03 0.03 0.02 0.03 0.01 0.00 0.00 0.00 0.01 0.02 0.01 0.02 0.03 0.04 0.06 0.08 0.09 0.08 0.06 0.05 0.05 0.04 0.05 0.05 0.05 0.05 0.04 0.04 0.04 0.04 0.03 0.06 0.06 0.03 0.03 0.03 0.02
0.03 0.03 0.03 0.05 0.06 0.05 0.05 0.04 0.03 0.02 0.01 0.01 0.00 0.00 0.00 0.01 0.01 0.01 0.02 0.02 0.03 0.04 0.06 0.08 0.07 0.07 0.05 0.05 0.05 0.04 0.04 0.03 0.03 0.04 0.05 0.05 0.04 0.04 0.05 0.08 0.06 0.04 0.04 0.03
0.03 0.03 0.04 0.04 0.05 0.05 0.04 0.04 0.03 0.02 0.01 0.01 0.00 0.00 0.01 0.01 0.01 0.01 0.02 0.02 0.02 0.02 0.04 0.05 0.06 0.07 0.07 0.07 0.06 0.05 0.04 0.04 0.04 0.04 0.04 0.06 0.06 0.06 0.06 0.08 0.08 0.06 0.05 0.05
0.03 0.03 0.04 0.04 0.04 0.04 0.03 0.02 0.02 0.01 0.01 0.01 0.01 0.01 0.01 0.01 0.01 0.01 0.02 0.02 0.03 0.03 0.03 0.04 0.03 0.04 0.05 0.06 0.07 0.06 0.06 0.05 0.04 0.05 0.05 0.06 0.07 0.07 0.07 0.08 0.08 0.07 0.05 0.05
0.03 0.03 0.03 0.03 0.03 0.02 0.02 0.01 0.01 0.01 0.00 0.01 0.01 0.01 0.01 0.01 0.01 0.01 0.02 0.02 0.04 0.04 0.04 0.04 0.03 0.02 0.03 0.04 0.05 0.06 0.06 0.06 0.06 0.07 0.06 0.05 0.05 0.06 0.07 0.09 0.09 0.08 0.06 0.05
0.02 0.03 0.03 0.02 0.02 0.01 0.01 0.01 0.01 0.00 0.00 0.00 0.01 0.01 0.01 0.01 0.01 0.02 0.02 0.02 0.03 0.04 0.04 0.04 0.03 0.01 0.02 0.03 0.04 0.05 0.06 0.07 0.07 0.05 0.03 0.03 0.03 0.03 0.05 0.08 0.09 0.06 0.05 0.06
0.02 0.02 0.02 0.02 0.01 0.01 0.01 0.00 0.00 0.00 0.00 0.00 0.00 0.01 0.01 0.01 0.01 0.02 0.02 0.03 0.02 0.02 0.03 0.04 0.03 0.02 0.02 0.02 0.03 0.04 0.04 0.04 0.05 0.04 0.03 0.02 0.02 0.02 0.04 0.08 0.10 0.05 0.03 0.04
0.01 0.01 0.01 0.01 0.01 0.01 0.01 0.01 0.01 0.01 0.01 0.00 0.01 0.01 0.01 0.01 0.01 0.01 0.01 0.02 0.02 0.02 0.03 0.04 0.03 0.02 0.02 0.02 0.03 0.04 0.04 0.04 0.04 0.02 0.01 0.01 0.01 0.02 0.03 0.06 0.09 0.07 0.04 0.04
0.02 0.01 0.01 0.01 0.01 0.01 0.01 0.01 0.01 0.01 0.01 0.01 0.01 0.01 0.01 0.01 0.01 0.01 0.01 0.01 0.01 0.02 0.02 0.03 0.02 0.02 0.02 0.03 0.04 0.04 0.04 0.03 0.03 0.02 0.01 0.01 0.02 0.02 0.02 0.04 0.06 0.06 0.02 0.02
0.01 0.01 0.01 0.01 0.00 0.01 0.01 0.01 0.01 0.01 0.01 0.01 0.02 0.02 0.01 0.01 0.01 0.01 0.02 0.01 0.01 0.01 0.02 0.01 0.01 0.02 0.03 0.04 0.04 0.04 0.03 0.02 0.02 0.02 0.01 0.01 0.01 0.02 0.02 0.03 0.05 0.06 0.02 0.01
0.01 0.01 0.01 0.01 0.01 0.01 0.01 0.01 0.01 0.01 0.01 0.01 0.02 0.02 0.02 0.02 0.01 0.01 0.01 0.01 0.01 0.01 0.01 0.01 0.02 0.01 0.02 0.04 0.04 0.03 0.03 0.02 0.01 0.02 0.01 0.01 0.01 0.02 0.03 0.04 0.06 0.06 0.03 0.02
0.02 0.02 0.01 0.01 0.02 0.02 0.02 0.01 0.01 0.01 0.01 0.01 0.02 0.05 0.03 0.02 0.01 0.02 0.02 0.01 0.01 0.01 0.01 0.01 0.01 0.01 0.02 0.03 0.04 0.03 0.02 0.02 0.02 0.01 0.02 0.01 0.02 0.03 0.04 0.04 0.05 0.05 0.03 0.02
0.01 0.02 0.02 0.02 0.02 0.03 0.02 0.01 0.01 0.01 0.01 0.01 0.01 0.03 0.02 0.02 0.01 0.02 0.02 0.02 0.01 0.01 0.01 0.01 0.01 0.01 0.02 0.03 0.03 0.03 0.02 0.01 0.01 0.01 0.01 0.02 0.03 0.03 0.03 0.02 0.04 0.05 0.04 0.02
0.01 0.01 0.02 0.02 0.03 0.03 0.03 0.02 0.01 0.00 0.00 0.00 0.00 0.01 0.01 0.01 0.01 0.01 0.02 0.02 0.02 0.01 0.01 0.02 0.02 0.02 0.02 0.02 0.02 0.02 0.02 0.01 0.01 0.01 0.01 0.02 0.02 0.02 0.02 0.02 0.04 0.06 0.04 0.02
0.01 0.02 0.02 0.02 0.02 0.03 0.03 0.02 0.02 0.01 0.01 0.01 0.01 0.00 0.01 0.01 0.01 0.01 0.01 0.02 0.02 0.02 0.03 0.03 0.03 0.03 0.02 0.02 0.02 0.02 0.02 0.02 0.01 0.01 0.00 0.01 0.01 0.01 0.02 0.03 0.05 0.06 0.06 0.03
0.01 0.02 0.02 0.02 0.03 0.03 0.03 0.02 0.02 0.01 0.01 0.01 0.01 0.01 0.01 0.01 0.01 0.02 0.02 0.03 0.03 0.03 0.03 0.03 0.03 0.02 0.02 0.02 0.02 0.02 0.02 0.02 0.01 0.01 0.01 0.01 0.01 0.02 0.02 0.03 0.05 0.07 0.07 0.05
MSLP
1009.97 1009.35 1008.60 1007.82 1007.06 1006.40 1005.90 1005.59 1005.44 1005.45 1005.55 1005.69 1005.80 1005.82 1005.73 1005.50 1005.16 1004.70 1004.19 1003.66 1003.15 1002.69 1002.30 1001.98 1001.72 1001.50 1001.29 1001.08 1000.84 1000.57 1000.27 999.96 999.65 999.37 999.15 999.02 998.98 999.04 999.21 999.47 999.81 1000.21 1000.66 1001.14
1009.75 1009.24 1008.60 1007.89 1007.19 1006.58 1006.11 1005.82 1005.72 1005.77 1005.93 1006.13 1006.30 1006.39 1006.34 1006.14 1005.78 1005.30 1004.73 1004.12 1003.53 1002.99 1002.54 1002.17 1001.89 1001.68 1001.52 1001.36 1001.20 1001.01 1000.78 1000.53 1000.27 1000.01 999.79 999.62 999.52 999.50 999.56 999.69 999.90 1000.17 1000.49 1000.85
1009.29 1008.92 1008.43 1007.86 1007.28 1006.77 1006.39 1006.16 1006.12 1006.22 1006.43 1006.69 1006.92 1007.06 1007.05 1006.87 1006.53 1006.03 1005.42 1004.76 1004.09 1003.47 1002.94 1002.52 1002.19 1001.96 1001.80 1001.67 1001.56 1001.43 1001.28 1001.10 1000.90 1000.68 1000.48 1000.30 1000.16 1000.06 1000.03 1000.05 1000.13 1000.26 1000.45 1000.68
1008.64 1008.43 1008.10 1007.70 1007.28 1006.90 1006.63 1006.49 1006.51 1006.66 1006.91 1007.21 1007.48 1007.66 1007.70 1007.56 1007.25 1006.77 1006.16 1005.48 1004.78 1004.11 1003.52 1003.03 1002.64 1002.37 1002.18 1002.05 1001.96 1001.87 1001.77 1001.64 1001.50 1001.33 1001.15 1000.97 1000.80 1000.65 1000.53 1000.44 1000.40 1000.41 1000.46 1000.57
1007.90 1007.82 1007.65 1007.41 1007.14 1006.90 1006.74 1006.69 1006.76 1006.95 1007.22 1007.54 1007.83 1008.05 1008.13 1008.05 1007.79 1007.37 1006.82 1006.17 1005.48 1004.80 1004.18 1003.64 1003.21 1002.89 1002.65 1002.50 1002.39 1002.31 1002.24 1002.15 1002.04 1001.91 1001.75 1001.57 1001.37 1001.17 1000.98 1000.80 1000.64 1000.52 1000.46 1000.44
1007.17 1007.17 1007.11 1007.00 1006.87 1006.76 1006.69 1006.70 1006.81 1007.01 1007.28 1007.59 1007.89 1008.12 1008.24 1008.22 1008.05 1007.72 1007.25 1006.68 1006.06 1005.43 1004.82 1004.28 1003.82 1003.45 1003.18 1002.98 1002.85 1002.76 1002.68 1002.61 1002.52 1002.40 1002.26 1002.07 1001.85 1001.60 1001.33 1001.06 1000.80 1000.57 1000.38 1000.26
1006.50 1006.53 1006.54 1006.53 1006.50 1006.47 1006.48 1006.54 1006.66 1006.85 1007.09 1007.37 1007.64 1007.87 1008.02 1008.06 1007.97 1007.75 1007.40 1006.96 1006.44 1005.90 1005.35 1004.84 1004.39 1004.01 1003.71 1003.47 1003.31 1003.19 1003.10 1003.02 1002.93 1002.82 1002.67 1002.48 1002.23 1001.93 1001.60 1001.24 1000.88 1000.54 1000.25 1000.03
1005.94 1005.95 1005.98 1006.02 1006.06 1006.11 1006.17 1006.25 1006.37 1006.54 1006.73 1006.96 1007.19 1007.39 1007.55 1007.63 1007.61 1007.50 1007.29 1006.98 1006.61 1006.19 1005.74 1005.30 1004.89 1004.52 1004.20 1003.95 1003.76 1003.61 1003.50 1003.41 1003.31 1003.20 1003.04 1002.82 1002.54 1002.20 1001.80 1001.37 1000.92 1000.49 1000.10 999.80
1005.48 1005.43 1005.45 1005.52 1005.61 1005.71 1005.81 1005.92 1006.04 1006.17 1006.32 1006.49 1006.66 1006.82 1006.96 1007.06 1007.11 1007.09 1007.00 1006.84 1006.61 1006.32 1006.00 1005.65 1005.31 1004.97 1004.67 1004.41 1004.20 1004.03 1003.90 1003.79 1003.69 1003.56 1003.39 1003.16 1002.85 1002.47 1002.02 1001.52 1000.99 1000.48 1000.02 999.64
1005.06 1004.94 1004.94 1005.02 1005.15 1005.31 1005.47 1005.61 1005.74 1005.86 1005.97 1006.08 1006.19 1006.30 1006.41 1006.52 1006.60 1006.65 1006.66 1006.62 1006.53 1006.38 1006.18 1005.94 1005.67 1005.39 1005.12 1004.87 1004.65 1004.47 1004.33 1004.20 1004.08 1003.94 1003.76 1003.52 1003.19 1002.78 1002.30 1001.75 1001.17 1000.60 1000.08 999.65
1004.61 1004.43 1004.41 1004.52 1004.70 1004.92 1005.15 1005.35 1005.52 1005.66 1005.75 1005.83 1005.89 1005.95 1006.03 1006.11 1006.21 1006.31 1006.40 1006.45 1006.47 1006.44 1006.35 1006.21 1006.02 1005.79 1005.56 1005.33 1005.11 1004.92 1004.76 1004.62 1004.49 1004.35 1004.16 1003.92 1003.59 1003.18 1002.68 1002.12 1001.52 1000.91 1000.36 999.89
1004.08 1003.86 1003.84 1003.98 1004.22 1004.53 1004.85 1005.13 1005.37 1005.54 1005.65 1005.72 1005.76 1005.79 1005.84 1005.91 1006.00 1006.12 1006.26 1006.38 1006.48 1006.54 1006.54 1006.47 1006.35 1006.18 1005.98 1005.76 1005.54 1005.35 1005.18 1005.03 1004.89 1004.75 1004.58 1004.34 1004.04 1003.65 1003.17 1002.63 1002.04 1001.45 1000.90 1000.43
1003.44 1003.20 1003.20 1003.38 1003.70 1004.10 1004.51 1004.90 1005.21 1005.45 1005.61 1005.70 1005.74 1005.76 1005.79 1005.85 1005.95 1006.08 1006.23 1006.40 1006.56 1006.67 1006.73 1006.73 1006.65 1006.51 1006.33 1006.12 1005.90 1005.70 1005.51 1005.36 1005.22 1005.09 1004.94 1004.75 1004.49 1004.15 1003.74 1003.25 1002.73 1002.18 1001.67 1001.23
1002.72 1002.49 1002.52 1002.75 1003.14 1003.62 1004.12 1004.60 1005.00 1005.31 1005.53 1005.66 1005.72 1005.76 1005.79 1005.85 1005.95 1006.09 1006.26 1006.45 1006.64 1006.79 1006.88 1006.91 1006.86 1006.74 1006.57 1006.35 1006.13 1005.91 1005.72 1005.56 1005.43 1005.32 1005.21 1005.07 1004.88 1004.64 1004.32 1003.94 1003.51 1003.06 1002.63 1002.25
1002.01 1001.81 1001.87 1002.14 1002.57 1003.11 1003.68 1004.22 1004.69 1005.07 1005.34 1005.52 1005.62 1005.68 1005.73 1005.80 1005.91 1006.06 1006.25 1006.45 1006.65 1006.82 1006.93 1006.97 1006.93 1006.82 1006.64 1006.42 1006.18 1005.95 1005.75 1005.59 1005.48 1005.40 1005.34 1005.28 1005.18 1005.05 1004.85 1004.60 1004.31 1003.99 1003.67 1003.39
1001.45 1001.28 1001.35 1001.64 1002.09 1002.64 1003.23 1003.80 1004.30 1004.72 1005.02 1005.24 1005.38 1005.47 1005.55 1005.65 1005.78 1005.94 1006.14 1006.35 1006.56 1006.73 1006.85 1006.89 1006.84 1006.72 1006.53 1006.30 1006.05 1005.81 1005.61 1005.46 1005.37 1005.33 1005.33 1005.35 1005.36 1005.35 1005.30 1005.20 1005.05 1004.88 1004.69 1004.52
1001.17 1001.02 1001.10 1001.36 1001.79 1002.31 1002.86 1003.40 1003.89 1004.30 1004.62 1004.86 1005.03 1005.15 1005.27 1005.39 1005.54 1005.73 1005.94 1006.16 1006.36 1006.53 1006.64 1006.67 1006.62 1006.49 1006.29 1006.05 1005.79 1005.56 1005.36 1005.22 1005.16 1005.16 1005.22 1005.32 1005.44 1005.55 1005.63 1005.68 1005.68 1005.65 1005.60 1005.55
1001.24 1001.11 1001.17 1001.39 1001.74 1002.18 1002.66 1003.13 1003.56 1003.93 1004.23 1004.47 1004.65 1004.80 1004.94 1005.10 1005.28 1005.48 1005.70 1005.92 1006.12 1006.28 1006.38 1006.40 1006.34 1006.20 1005.99 1005.75 1005.50 1005.27 1005.08 1004.97 1004.93 1004.97 1005.08 1005.25 1005.45 1005.66 1005.86 1006.03 1006.17 1006.26 1006.33 1006.39
1001.70 1001.58 1001.59 1001.74 1001.99 1002.32 1002.68 1003.04 1003.39 1003.69 1003.95 1004.17 1004.35 1004.52 1004.69 1004.88 1005.08 1005.30 1005.52 1005.75 1005.94 1006.09 1006.17 1006.17 1006.10 1005.96 1005.75 1005.52 1005.28 1005.06 1004.90 1004.80 1004.79 1004.86 1005.01 1005.22 1005.47 1005.75 1006.02 1006.27 1006.49 1006.68 1006.84 1006.98
1002.45 1002.32 1002.28 1002.35 1002.49 1002.68 1002.92 1003.16 1003.40 1003.63 1003.84 1004.04 1004.22 1004.41 1004.61 1004.82 1005.04 1005.27 1005.50 1005.72 1005.90 1006.03 1006.09 1006.08 1006.00 1005.86 1005.66 1005.44 1005.22 1005.03 1004.89 1004.81 1004.82 1004.90 1005.07 1005.29 1005.56 1005.85 1006.15 1006.44 1006.70 1006.94 1007.14 1007.33
1003.31 1003.16 1003.08 1003.06 1003.09 1003.17 1003.28 1003.42 1003.57 1003.73 1003.91 1004.09 1004.28 1004.49 1004.72 1004.95 1005.20 1005.44 1005.67 1005.88 1006.04 1006.15 1006.19 1006.17 1006.08 1005.94 1005.76 1005.56 1005.37 1005.21 1005.09 1005.03 1005.05 1005.13 1005.29 1005.49 1005.74 1006.02 1006.29 1006.57 1006.83 1007.07 1007.28 1007.48
1004.08 1003.93 1003.80 1003.70 1003.64 1003.62 1003.64 1003.69 1003.78 1003.91 1004.07 1004.26 1004.48 1004.72 1004.98 1005.24 1005.51 1005.77 1005.99 1006.19 1006.33 1006.41 1006.43 1006.40 1006.31 1006.18 1006.02 1005.85 1005.69 1005.56 1005.47 1005.43 1005.45 1005.53 1005.66 1005.83 1006.03 1006.25 1006.48 1006.71 1006.93 1007.13 1007.33 1007.52
1004.60 1004.42 1004.26 1004.11 1003.98 1003.90 1003.86 1003.87 1003.93 1004.05 1004.22 1004.44 1004.70 1004.98 1005.28 1005.59 1005.88 1006.14 1006.37 1006.55 1006.67 1006.73 1006.74 1006.69 1006.61 1006.49 1006.36 1006.22 1006.11 1006.01 1005.96 1005.94 1005.96 1006.03 1006.13 1006.25 1006.40 1006.56 1006.72 1006.88 1007.04 1007.21 1007.37 1007.54
1004.74 1004.55 1004.36 1004.18 1004.02 1003.90 1003.84 1003.84 1003.91 1004.05 1004.26 1004.52 1004.83 1005.17 1005.51 1005.85 1006.16 1006.44 1006.66 1006.83 1006.93 1006.98 1006.98 1006.93 1006.85 1006.76 1006.66 1006.57 1006.50 1006.45 1006.43 1006.44 1006.48 1006.54 1006.62 1006.71 1006.81 1006.91 1007.01 1007.11 1007.22 1007.34 1007.47 1007.63
1004.50 1004.31 1004.10 1003.91 1003.74 1003.62 1003.56 1003.58 1003.68 1003.86 1004.11 1004.43 1004.79 1005.18 1005.57 1005.93 1006.27 1006.55 1006.77 1006.92 1007.02 1007.05 1007.05 1007.01 1006.95 1006.89 1006.84 1006.79 1006.78 1006.78 1006.81 1006.86 1006.92 1006.99 1007.07 1007.14 1007.20 1007.27 1007.33 1007.40 1007.48 1007.57 1007.69 1007.84
1003.99 1003.79 1003.58 1003.39 1003.23 1003.13 1003.09 1003.14 1003.28 1003.50 1003.80 1004.16 1004.57 1004.99 1005.40 1005.79 1006.13 1006.41 1006.63 1006.78 1006.87 1006.90 1006.91 1006.88 1006.86 1006.84 1006.83 1006.85 1006.89 1006.96 1007.04 1007.14 1007.23 1007.33 1007.42 1007.50 1007.57 1007.63 1007.68 1007.74 1007.82 1007.91 1008.04 1008.20
1003.35 1003.16 1002.97 1002.80 1002.66 1002.58 1002.57 1002.65 1002.82 1003.08 1003.41 1003.79 1004.22 1004.65 1005.07 1005.46 1005.79 1006.07 1006.28 1006.42 1006.51 1006.56 1006.58 1006.59 1006.60 1006.63 1006.68 1006.76 1006.86 1006.99 1007.13 1007.28 1007.43 1007.56 1007.69 1007.79 1007.89 1007.97 1008.05 1008.13 1008.23 1008.35 1008.50 1008.68
Thickness
5717 5725 5727 5725 5728 5734 5731 5729 5723 5726 5725 5724 5727 5728 5728 5727 5726 5724 5723 5722 5719 5718 5717 5718 5717 5716 5715 5713 5712 5712 5710 5708 5707 5707 5706 5704 5704 5703 5702 5702 5701 5700 5697 5696
5703 5715 5719 5717 5721 5726 5729 5731 5728 5726 5723 5730 5727 5725 5721 5717 5715 5712 5711 5711 5711 5710 5709 5708 5709 5708 5707 5706 5705 5705 5703 5702 5702 5701 5699 5698 5697 5697 5696 5695 5695 5694 5692 5690
5686 5705 5705 5699 5712 5718 5720 5725 5725 5715 5715 5719 5714 5710 5707 5706 5705 5701 5701 5701 5702 5702 5702 5701 5702 5702 5700 5700 5699 5698 5696 5696 5695 5694 5693 5692 5692 5690 5689 5688 5688 5687 5685 5683
5680 5683 5671 5697 5717 5720 5717 5717 5720 5714 5713 5708 5704 5701 5699 5697 5694 5693 5693 5693 5694 5695 5696 5696 5697 5696 5694 5694 5692 5691 5690 5689 5689 5689 5688 5687 5685 5683 5682 5681 5680 5679 5678 5677
5668 5667 5677 5691 5702 5705 5702 5700 5708 5705 5702 5700 5700 5696 5690 5689 5688 5686 5685 5686 5687 5689 5690 5689 5689 5688 5687 5686 5685 5684 5683 5682 5683 5683 5681 5679 5677 5676 5675 5674 5673 5672 5672 5671
5663 5658 5659 5675 5694 5704 5699 5681 5694 5695 5692 5691 5692 5681 5675 5679 5679 5679 5679 5679 5680 5682 5682 5681 5681 5681 5679 5679 5678 5676 5676 5676 5677 5676 5674 5672 5671 5670 5668 5667 5666 5666 5665 5665
5656 5653 5659 5674 5686 5693 5670 5665 5682 5684 5683 5681 5676 5672 5670 5672 5671 5671 5671 5671 5672 5673 5672 5672 5673 5673 5671 5670 5669 5669 5670 5669 5669 5668 5667 5667 5665 5664 5662 5661 5660 5659 5658 5659
5653 5646 5646 5668 5672 5665 5660 5669 5673 5673 5673 5671 5668 5666 5665 5664 5662 5663 5662 5663 5663 5663 5663 5663 5664 5664 5662 5661 5663 5663 5662 5661 5661 5661 5661 5661 5659 5657 5656 5655 5654 5653 5652 5652
5643 5640 5650 5659 5659 5660 5662 5660 5661 5663 5664 5663 5660 5658 5657 5655 5654 5654 5654 5654 5654 5654 5653 5653 5654 5654 5652 5653 5654 5654 5654 5652 5652 5652 5652 5652 5651 5650 5649 5648 5647 5648 5647 5646
5639 5639 5644 5649 5652 5653 5653 5652 5654 5655 5656 5656 5652 5650 5648 5647 5646 5645 5645 5645 5645 5644 5643 5642 5643 5644 5644 5645 5646 5646 5645 5645 5644 5644 5644 5644 5643 5643 5641 5641 5640 5641 5641 5641
5631 5634 5636 5639 5641 5643 5643 5646 5647 5647 5647 5647 5645 5643 5641 5638 5637 5637 5637 5636 5636 5635 5634 5634 5634 5635 5636 5637 5637 5636 5636 5636 5636 5636 5636 5635 5635 5634 5634 5633 5634 5633 5634 5635
5623 5627 5626 5626 5634 5636 5634 5635 5637 5636 5635 5637 5637 5634 5633 5631 5630 5630 5629 5629 5628 5627 5626 5626 5626 5627 5628 5628 5628 5627 5627 5627 5627 5628 5629 5628 5628 5627 5626 5626 5625 5625 5625 5625
5624 5627 5626 5626 5627 5627 5626 5627 5629 5628 5628 5627 5627 5627 5626 5624 5623 5622 5622 5621 5621 5620 5619 5619 5619 5619 5619 5620 5619 5618 5617 5618 5620 5621 5621 5621 5622 5621 5620 5619 5617 5617 5617 5617
5622 5620 5617 5617 5617 5619 5620 5621 5622 5621 5621 5621 5620 5620 5619 5617 5617 5616 5615 5614 5614 5614 5613 5612 5611 5611 5612 5612 5611 5611 5611 5612 5612 5613 5614 5615 5616 5616 5616 5615 5614 5613 5611 5610
5615 5614 5612 5613 5613 5613 5613 5614 5613 5612 5612 5613 5613 5612 5611 5609 5608 5608 5608 5608 5607 5606 5605 5605 5604 5603 5604 5604 5604 5604 5604 5605 5606 5606 5608 5609 5610 5610 5611 5611 5611 5609 5608 5605
5609 5609 5607 5606 5606 5606 5606 5606 5604 5604 5604 5604 5604 5603 5603 5602 5601 5601 5601 5601 5599 5598 5597 5597 5597 5597 5598 5597 5597 5597 5597 5598 5598 5599 5600 5602 5603 5604 5604 5604 5603 5602 5601 5600
5600 5599 5599 5599 5599 5600 5600 5599 5599 5598 5597 5597 5596 5596 5595 5594 5592 5592 5593 5593 5592 5591 5591 5590 5590 5591 5591 5591 5591 5592 5593 5594 5593 5594 5595 5597 5597 5598 5598 5597 5597 5596 5595 5593
5598 5597 5596 5596 5596 5595 5594 5594 5593 5592 5590 5590 5590 5589 5587 5585 5584 5585 5585 5586 5585 5585 5584 5584 5583 5584 5584 5584 5585 5586 5588 5590 5591 5591 5591 5592 5593 5594 5593 5592 5591 5590 5589 5587
5594 5594 5593 5592 5591 5590 5589 5588 5587 5586 5585 5584 5582 5580 5580 5580 5579 5579 5579 5578 5578 5577 5577 5578 5576 5577 5578 5578 5578 5580 5583 5584 5585 5586 5586 5586 5587 5587 5586 5586 5585 5584 5583 5582
5590 5590 5589 5588 5588 5585 5583 5582 5581 5579 5578 5577 5575 5574 5573 5573 5573 5573 5572 5572 5572 5571 5572 5571 5571 5572 5572 5573 5571 5575 5577 5578 5579 5580 5580 5580 5579 5579 5579 5578 5577 5577 5576 5575
5583 5583 5582 5582 5581 5580 5578 5577 5575 5573 5572 5571 5569 5567 5567 5567 5567 5566 5565 5565 5565 5565 5565 5565 5565 5566 5566 5565 5566 5570 5571 5571 5573 5573 5573 5572 5572 5571 5570 5570 5569 5568 5568 5567
5577 5577 5576 5576 5575 5574 5573 5571 5569 5568 5566 5565 5564 5562 5560 5560 5560 5560 5559 5558 5558 5556 5560 5561 5560 5558 5558 5558 5562 5564 5565 5565 5566 5566 5566 5566 5565 5564 5563 5562 5562 5561 5561 5560
5571 5571 5570 5569 5569 5568 5567 5566 5564 5562 5561 5559 5558 5556 5555 5554 5554 5553 5551 5552 5553 5550 5553 5554 5551 5551 5550 5554 5557 5558 5559 5559 5559 5559 5559 5559 5559 5558 5557 5556 5556 5556 5554 5554
5565 5565 5565 5565 5564 5562 5561 5561 5560 5558 5557 5555 5554 5552 5550 5549 5548 5549 5548 5545 5545 5545 5547 5546 5545 5545 5544 5548 5550 5552 5552 5552 5552 5552 5552 5552 5552 5551 5551 5550 5549 5548 5548 5547
5560 5559 5559 5559 5557 5557 5556 5556 5555 5553 5552 5551 5550 5549 5547 5546 5544 5544 5543 5542 5540 5540 5542 5541 5539 5539 5540 5543 5545 5545 5545 5545 5545 5545 5544 5544 5543 5543 5543 5543 5542 5540 5540 5539
5553 5554 5554 5553 5554 5553 5553 5552 5551 5549 5548 5547 5546 5545 5544 5542 5541 5540 5539 5538 5537 5535 5536 5537 5536 5535 5537 5538 5539 5539 5538 5538 5538 5538 5537 5536 5536 5536 5535 5533 5533 5533 5531 5530
5548 5549 5547 5548 5549 5549 5548 5548 5546 5545 5544 5543 5541 5541 5540 5539 5537 5536 5535 5534 5533 5532 5532 5533 5533 5533 5533 5533 5533 5533 5532 5531 5531 5531 5530 5530 5529 5528 5527 5526 5525 5524 5523 5522